Regional Weather Roundup
Issued by NWS Green Bay, WI

Home | Current Version | Previous Version | Graphics & Text | Print | Product List | Glossary Off
Versions: 1 2 3 4 5 6 7 8 9 10 11 12 13 14 15 16 17 18 19 20 21 22 23 24 25 26 27 28 29 30 31 32 33 34 35 36 37 38 39 40 41 42 43 44 45 46 47 48 49 50

000
ASUS43 KGRB 210311
RWRGRB

NORTH-CENTRAL AND NORTHEAST WISCONSIN REGIONAL WEATHER ROUNDUP
NATIONAL WEATHER SERVICE GREEN BAY WI
1000 PM CDT THU JUL 20 2017

WIZ005-009-010>012-018-019-210400-
NORTH CENTRAL WISCONSIN

CITY           SKY/WX    TMP DP  RH WIND       PRES   REMARKS
IRONWOOD       CLEAR     66  64  93 CALM      29.98R
MANITOWISH WTR CLEAR     62  62 100 CALM      30.01R
ARBOR VITAE    CLEAR     65  61  87 CALM      30.01R
EAGLE RIVER    CLEAR     62  57  85 CALM      30.01R
LAND O LAKES   CLEAR     60  58  92 CALM      30.02R
RHINELANDER    CLEAR     62  61  96 W3        30.02R
PHILLIPS       CLEAR     65  64  94 CALM      30.00S
ANTIGO         CLEAR     69  62  76 NW5       30.01R
TOMAHAWK         N/A     62  60  91 CALM      30.01S
MERRILL        CLEAR     67  65  91 CALM      30.00R
$$

WIZ013-073-210400-
NORTHEAST WISCONSIN

CITY           SKY/WX    TMP DP  RH WIND       PRES   REMARKS
IRON MOUNTAIN  CLEAR     66  58  75 CALM      29.97R
MARINETTE      CLEAR     73  67  81 CALM      29.94R
OCONTO         CLEAR     70  67  90 CALM      29.93S
$$

WIZ017-030-035>037-045-210400-
CENTRAL WISCONSIN

CITY           SKY/WX    TMP DP  RH WIND       PRES   REMARKS
MEDFORD        CLEAR     69  65  88 CALM      30.01R
WAUSAU         CLEAR     73  66  78 CALM      29.98R
MOSINEE        CLEAR     72  66  83 NW3       30.00S
MARSHFIELD     CLEAR     69  64  84 NW5       29.99R
WISC RAPIDS    CLEAR     68  66  93 CALM      29.99S
STEVENS POINT  CLEAR     67  65  94 CALM      29.99R
WAUPACA        CLEAR     73  69  86 CALM      29.97S
SHAWANO        CLEAR     72  65  77 CALM      29.95F
CLINTONVILLE   CLEAR     72  63  73 CALM      29.95F
WAUTOMA        CLEAR     71  68  90 CALM      29.97S
$$

WIZ038-039-048-051-210400-
FOX VALLEY

CITY           SKY/WX    TMP DP  RH WIND       PRES   REMARKS
NWS GREEN BAY  CLEAR     72  70  93 CALM      29.95S
APPLETON       MOCLDY    72  63  73 VRB5      29.95S
OSHKOSH        CLEAR     74  68  81 SW5       29.96S
FOND DU LAC    CLEAR     71  67  87 CALM      29.97S
$$

WIZ022-050-052-210400-
EAST CENTRAL WISCONSIN

CITY           SKY/WX    TMP DP  RH WIND       PRES   REMARKS
EPHRAIM        FAIR      72  66  80 W5        29.93S
WASHINGTON ISL FAIR      67  65  91 NE5       29.94R
STURGEON BAY     N/A     71  68  90 S5        29.94F
MANITOWOC      CLEAR     72  67  84 CALM      29.96S
SHEBOYGAN      PTCLDY    71  71 100 S3        29.96S
$$

LMZ563-521-522-541>543-210400-
LAKESHORE

STATION/POSITION TIME  TEMP    WIND        PRES    VSBY  WAVE
                       AIR SEA DIR/SP/G                  HT/PER
                 (UTC) (F)     (DEG/KT/KT) (MB)    (MI)  (FT/S)
SHEBOYGAN LKSHOR 0300   72     180/  7/  7 1014.0S
KEWAUNEE LKSHORE 0248   70     160/  1/  2 1013.6R
NORTHPORT PIER   0240   71     320/  3/  5 1013.5R
N MID LAKE BUOY  0250   68 65  160/  4/  6 1014.5R         1/ 5
S GREEN BAY BUOY 0300   77 74  250/  6/  6 1013.5
SISTER BAY LKSHO 0302   75     340/  7/  8   N/A
CHAMBERS ISLAND  0230   77     280/  6/  8 1012.9R
MENOMINEE LKSHOR 0248   79     250/  4/  6 1013.2R
$$




USA.gov is the U.S. government's official web portal to all federal, state and local government web resources and services.